Вернуться в каталог

CARTOSAT 2C

АктивенНаукаSSO
NORAD 41599·PAYLOAD·🇮🇳 India

Запущен Jun 22, 2016 с Satish Dhawan Space Centre

Loading…

Ближайшие Пролёты (ближайшие 24 часа)

TLE

СвежийSource: Space-Track

Эпоха: Sep 14, 2026, 21:34 UTC

1 41599U 16040A   26257.89922372  .00002863  00000-0  13890-3 0  9996
2 41599  97.4391 316.5965 0009052 172.7176 187.4192 15.19264578567339

Отслеживайте CARTOSAT 2C в реальном времени с AllMySat

Download on the App Store